Wind_Speed
21 21 22 22 22 23 23 23 23 24 25 25 25 25 26 26 27 27 27 27 27 27 28 27 26 26 26 26 26 26 26 26 27 27 26 27 27 27 27 27 27 27 26
22 23 23 23 23 24 24 24 24 24 25 26 26 27 27 27 28 28 28 27 27 28 28 29 28 28 27 27 27 28 27 27 27 28 27 28 28 28 28 28 28 27 27
23 24 24 24 24 24 25 25 24 25 25 25 26 27 27 27 28 28 29 29 29 28 29 29 29 28 28 28 28 29 29 29 29 29 29 29 30 30 30 29 29 29 28
23 25 25 25 24 24 24 24 24 25 25 25 26 26 27 26 27 28 29 29 29 28 28 28 28 29 28 29 29 29 29 29 30 30 30 31 30 31 31 31 30 30 29
24 24 24 24 24 24 24 24 24 24 25 25 25 26 26 26 26 27 28 29 29 29 28 28 29 29 29 29 30 30 30 30 30 31 31 31 31 31 31 32 32 31 30
22 22 23 23 23 23 24 24 24 24 24 25 25 25 26 26 26 26 27 27 28 29 29 29 28 30 30 30 31 31 31 31 31 31 31 31 32 32 32 32 33 32 32
22 23 23 24 24 24 23 23 23 23 24 25 25 25 26 27 27 26 26 27 27 28 29 29 29 29 30 30 30 31 31 31 31 31 31 31 32 32 32 32 33 32 33
21 23 23 24 24 24 23 23 23 23 23 24 24 25 25 25 26 26 27 27 28 29 29 29 29 29 30 29 29 30 32 32 31 32 32 32 32 32 33 33 33 33 33
21 22 23 23 23 24 24 24 23 24 24 24 24 25 25 24 25 26 27 28 28 28 29 29 29 29 30 30 30 30 30 30 31 32 33 33 33 33 33 33 34 34 34
21 22 22 23 23 23 24 24 24 23 24 24 24 24 25 25 25 25 26 27 28 28 28 29 30 30 30 31 31 30 31 32 32 33 33 33 34 34 33 34 36 36 35
21 23 23 24 24 24 24 23 23 23 24 24 24 25 25 26 26 26 26 26 27 27 27 28 29 29 30 30 31 32 31 32 33 33 33 34 34 34 34 33 34 36 35
22 23 23 23 23 23 23 22 23 24 24 24 25 25 25 25 26 26 26 26 27 27 28 28 29 30 31 31 32 33 32 32 33 33 33 33 34 33 33 32 33 34 34
22 23 22 21 21 22 23 23 23 23 23 23 23 24 23 24 24 25 26 26 27 27 28 28 29 31 32 32 32 34 35 34 34 34 34 33 33 33 33 32 33 33 33
21 21 21 20 21 22 22 23 23 23 24 24 23 23 23 22 23 23 25 26 26 26 27 28 29 30 31 33 33 33 34 34 34 34 35 35 34 34 34 33 32 33 34
20 20 20 21 21 21 22 23 23 23 24 24 23 23 23 23 23 24 25 25 26 27 27 28 29 29 30 32 34 34 35 35 34 34 36 36 36 35 34 34 34 33 33
19 20 20 21 21 22 22 23 23 23 23 23 23 23 23 24 24 25 25 25 26 27 27 27 27 28 29 31 33 34 35 35 36 36 36 36 37 36 36 35 35 34 34
19 20 20 20 20 21 22 22 22 22 22 22 22 21 21 22 22 23 23 24 24 25 25 24 25 26 28 29 30 31 33 35 37 37 36 36 36 36 37 37 37 36 36
20 20 20 20 21 21 22 22 22 21 21 21 21 20 21 21 21 21 22 22 22 22 23 23 24 24 25 26 27 29 31 32 34 35 35 35 36 36 36 36 37 37 36
20 20 20 20 21 21 21 22 22 21 20 19 19 20 20 20 20 20 21 21 21 22 23 23 23 23 24 24 25 26 27 28 30 31 33 34 34 34 34 34 35 36 35
19 19 20 20 21 21 22 22 22 21 20 19 19 20 21 21 20 20 20 20 19 20 21 22 22 22 23 23 23 24 24 25 27 29 30 31 32 32 32 32 32 33 34
19 19 20 20 21 21 21 21 21 21 21 20 21 21 21 21 21 21 20 20 19 19 20 21 21 22 22 23 23 23 23 24 26 28 29 30 31 32 32 31 32 32 32
19 19 19 18 19 20 20 20 21 21 20 20 20 20 20 21 21 19 19 19 19 19 19 20 20 20 21 21 21 21 21 22 24 26 27 28 29 30 31 32 32 32 33
17 17 17 17 18 18 19 19 19 19 19 19 19 20 21 20 19 18 18 18 18 18 18 18 19 19 19 19 20 20 20 21 22 23 24 26 28 28 30 31 32 32 33
17 16 16 16 17 18 18 19 19 18 18 18 19 19 20 20 19 18 18 18 18 18 18 18 19 18 18 18 19 19 19 20 21 21 23 24 26 27 28 29 30 32 32
16 16 16 16 17 17 18 19 18 18 18 18 18 18 19 20 19 18 18 18 17 18 18 19 18 18 18 18 18 19 19 19 19 20 22 23 24 25 26 28 30 30 31
14 14 15 15 17 17 18 19 18 17 18 18 18 19 19 19 18 17 17 17 16 16 16 17 17 17 17 17 18 18 18 18 19 20 21 23 23 24 25 27 28 30 31
Wind_Direction
287 286 286 285 284 283 283 285 284 282 281 280 279 277 277 275 273 271 270 268 265 264 263 263 263 264 262 260 257 256 254 252 253 252 250 248 247 248 247 246 245 244 242
287 286 286 286 286 285 285 285 283 281 280 279 279 279 278 277 274 270 268 267 265 264 264 263 263 263 262 260 257 256 254 252 251 251 250 250 248 247 247 246 244 244 242
287 286 286 288 287 285 285 283 282 282 282 281 281 281 280 280 276 270 268 267 266 264 264 263 262 262 261 259 258 256 255 252 252 251 250 250 250 248 247 246 245 246 245
290 288 288 288 288 286 284 283 283 283 283 282 282 283 282 281 278 273 270 267 266 265 263 261 261 262 261 260 259 257 255 253 253 252 251 250 248 247 245 246 246 247 245
292 293 292 291 289 288 287 286 285 284 283 282 282 283 282 281 279 275 273 270 267 266 264 263 262 261 261 260 259 258 256 254 252 252 251 249 248 248 246 246 245 246 245
291 296 296 294 292 291 289 288 288 286 283 281 282 282 281 279 277 276 274 272 269 266 264 264 263 262 261 260 259 258 257 255 253 252 251 249 250 249 249 247 246 246 246
292 294 295 296 294 292 292 292 291 287 285 283 281 281 281 279 277 276 274 273 272 269 266 264 263 262 262 261 258 257 256 255 254 252 250 250 250 250 250 249 247 246 246
294 296 297 295 294 292 293 293 291 289 288 287 285 282 282 279 276 275 274 273 272 270 266 264 264 262 260 260 258 257 257 254 253 252 250 250 249 250 249 249 248 247 246
296 297 296 295 295 295 295 293 292 291 289 288 289 286 284 281 276 274 272 272 271 270 266 264 262 261 258 258 257 257 255 254 253 254 252 251 251 250 249 249 248 246 245
295 297 297 296 296 297 296 294 292 292 291 290 290 288 284 280 278 276 273 272 271 271 268 264 261 260 259 258 257 257 255 255 254 254 253 252 251 251 250 250 248 246 245
295 297 298 299 299 297 296 295 292 292 293 293 291 289 286 282 280 278 276 274 272 270 268 265 261 259 259 259 258 257 256 255 255 254 253 252 252 252 251 250 248 245 244
298 299 299 300 300 298 297 297 294 295 296 295 293 290 287 283 280 279 276 275 273 270 268 266 263 259 258 259 259 257 255 256 255 254 251 252 253 253 251 248 246 245 245
301 302 302 303 302 300 297 299 298 297 296 297 298 294 289 286 282 281 278 277 276 274 271 268 265 262 259 258 259 257 256 256 256 254 251 251 251 252 251 249 247 246 245
305 306 306 306 306 305 303 302 300 299 299 299 299 295 292 290 286 285 283 280 277 276 273 269 268 265 261 258 258 257 257 257 256 254 251 251 252 252 251 250 250 249 247
307 309 309 308 308 307 306 304 302 302 301 300 298 296 294 291 288 287 285 282 280 277 274 271 268 265 263 259 258 258 257 257 255 254 252 251 251 251 250 249 250 250 247
308 309 308 307 308 307 307 306 306 305 303 301 299 299 297 295 293 289 286 284 282 280 276 272 270 268 264 262 260 259 259 258 255 254 253 251 251 251 250 250 250 249 246
308 309 309 308 309 308 307 307 307 306 306 305 304 301 298 299 296 292 289 287 284 280 276 273 272 270 266 264 263 262 260 260 258 255 253 252 251 250 249 249 248 248 246
307 307 308 308 309 308 309 308 308 308 309 307 307 304 302 303 301 298 294 290 286 281 277 275 273 272 268 265 265 264 263 261 259 256 253 252 251 252 250 249 247 247 246
307 308 307 307 307 307 307 307 309 308 307 307 307 307 305 304 304 300 297 291 286 281 278 277 276 272 270 268 267 265 262 261 259 257 254 252 252 252 250 249 248 247 246
306 306 307 308 307 309 310 310 309 309 309 309 309 310 310 308 308 305 301 297 290 284 280 278 276 274 273 271 270 268 264 261 259 258 255 252 251 251 250 249 248 247 246
312 310 310 310 311 312 313 315 315 315 314 311 311 311 311 312 310 307 302 299 297 291 284 280 278 277 275 274 271 270 266 263 261 259 257 253 250 250 249 249 248 247 247
314 313 312 314 316 317 318 318 318 318 319 317 314 314 315 314 313 309 303 300 297 293 288 282 280 279 277 275 272 269 265 263 262 258 257 255 252 250 250 249 249 249 248
317 317 318 318 319 320 322 322 322 322 322 322 320 319 317 318 317 314 309 305 299 296 292 288 286 282 279 274 273 271 267 267 264 262 260 259 257 255 253 252 251 250 250
318 318 319 322 325 327 327 327 326 325 324 324 323 322 321 320 318 316 313 309 303 298 296 293 290 285 283 278 274 271 267 265 264 263 263 262 260 258 255 254 253 251 249
320 321 322 325 329 331 332 332 332 331 330 330 330 328 325 325 323 321 318 314 307 301 299 297 293 288 286 282 279 276 273 270 266 264 264 264 262 261 259 258 254 253 252
324 325 327 328 331 332 332 333 333 333 333 332 333 333 331 329 327 323 321 322 318 310 304 300 297 293 290 287 282 279 277 275 272 269 267 266 264 263 262 260 257 255 254
Height
5839 5838 5837 5836 5834 5833 5831 5830 5829 5828 5826 5826 5825 5824 5823 5823 5822 5821 5821 5821 5821 5822 5822 5822 5823 5823 5824 5825 5826 5827 5828 5830 5831 5832 5834 5836 5838 5839 5841 5843 5844 5846 5848
5834 5833 5831 5830 5829 5827 5825 5824 5823 5821 5820 5819 5818 5817 5816 5815 5815 5814 5814 5814 5814 5815 5815 5815 5816 5817 5817 5818 5819 5820 5822 5823 5824 5826 5827 5829 5831 5833 5835 5837 5839 5840 5842
5828 5827 5825 5824 5822 5821 5819 5818 5816 5814 5813 5812 5810 5809 5808 5807 5807 5806 5806 5806 5807 5807 5808 5808 5809 5809 5810 5811 5812 5813 5815 5816 5818 5819 5821 5822 5825 5827 5829 5831 5832 5834 5836
5822 5821 5819 5818 5816 5814 5812 5811 5809 5807 5806 5805 5803 5802 5801 5800 5799 5798 5798 5798 5799 5800 5800 5801 5801 5802 5803 5804 5805 5806 5808 5809 5811 5812 5814 5815 5817 5819 5822 5824 5826 5828 5830
5816 5815 5813 5811 5809 5807 5805 5804 5802 5800 5799 5797 5796 5795 5794 5793 5792 5791 5791 5791 5791 5792 5793 5793 5794 5795 5796 5797 5797 5799 5800 5801 5803 5805 5806 5808 5810 5812 5814 5817 5819 5821 5823
5810 5809 5807 5805 5803 5801 5799 5796 5794 5793 5791 5790 5789 5788 5787 5786 5785 5784 5784 5784 5784 5784 5784 5785 5786 5787 5787 5789 5790 5791 5792 5793 5795 5797 5799 5801 5803 5805 5807 5809 5811 5814 5816
5805 5803 5801 5798 5796 5794 5792 5790 5788 5786 5784 5783 5782 5781 5779 5778 5777 5777 5776 5776 5776 5776 5776 5777 5778 5779 5779 5780 5781 5783 5784 5786 5788 5789 5791 5793 5795 5797 5799 5801 5803 5806 5809
5799 5797 5795 5792 5790 5788 5786 5784 5782 5780 5778 5776 5775 5773 5772 5771 5770 5770 5769 5769 5768 5768 5768 5769 5770 5771 5771 5772 5773 5775 5776 5778 5780 5781 5783 5785 5787 5789 5791 5793 5795 5798 5801
5793 5791 5789 5786 5784 5782 5780 5778 5776 5774 5772 5770 5767 5766 5764 5764 5763 5763 5762 5761 5761 5760 5761 5761 5761 5762 5763 5764 5765 5767 5768 5770 5772 5773 5775 5777 5779 5781 5783 5785 5787 5790 5792
5787 5785 5783 5780 5778 5776 5774 5772 5770 5767 5765 5763 5761 5759 5757 5756 5755 5755 5754 5753 5753 5752 5752 5752 5753 5754 5755 5756 5757 5758 5760 5761 5763 5765 5767 5769 5771 5772 5774 5776 5778 5781 5783
5782 5779 5777 5775 5773 5771 5768 5766 5763 5761 5759 5757 5755 5752 5750 5748 5747 5746 5746 5745 5745 5744 5744 5744 5745 5746 5747 5747 5748 5750 5751 5753 5754 5756 5758 5760 5762 5764 5765 5767 5769 5771 5774
5776 5774 5772 5769 5767 5765 5762 5760 5757 5755 5753 5750 5747 5745 5743 5741 5740 5738 5738 5738 5737 5737 5737 5736 5736 5737 5738 5739 5739 5741 5742 5744 5745 5747 5749 5751 5753 5754 5756 5758 5760 5762 5764
5771 5769 5766 5764 5761 5759 5756 5754 5751 5749 5746 5743 5740 5738 5736 5734 5732 5731 5731 5730 5730 5729 5729 5728 5728 5728 5729 5730 5731 5731 5733 5734 5736 5738 5740 5742 5744 5745 5747 5749 5751 5753 5755
5766 5763 5761 5759 5756 5753 5751 5748 5745 5742 5739 5736 5734 5731 5728 5727 5725 5724 5723 5723 5722 5722 5721 5720 5720 5720 5720 5721 5721 5722 5723 5725 5727 5728 5730 5733 5735 5736 5738 5740 5742 5744 5746
5761 5759 5756 5754 5751 5748 5745 5742 5739 5736 5733 5730 5727 5724 5722 5720 5718 5717 5716 5715 5714 5713 5713 5712 5711 5711 5710 5711 5712 5713 5714 5715 5717 5718 5720 5722 5724 5726 5728 5730 5732 5734 5737
5757 5754 5751 5749 5746 5743 5740 5737 5733 5730 5727 5724 5721 5718 5716 5713 5711 5709 5708 5707 5705 5704 5704 5704 5703 5702 5702 5702 5703 5703 5704 5705 5706 5708 5709 5711 5713 5715 5717 5720 5722 5724 5727
5752 5750 5747 5744 5741 5738 5735 5732 5728 5724 5721 5718 5715 5713 5710 5707 5705 5702 5701 5699 5697 5696 5696 5695 5694 5693 5693 5693 5693 5694 5694 5694 5695 5697 5698 5700 5702 5704 5706 5709 5712 5715 5718
5747 5745 5742 5739 5736 5733 5730 5726 5723 5719 5716 5713 5710 5707 5704 5701 5699 5696 5694 5692 5690 5689 5688 5688 5687 5685 5685 5684 5684 5684 5684 5684 5684 5685 5687 5689 5692 5694 5696 5698 5701 5704 5707
5743 5740 5737 5734 5731 5728 5724 5721 5718 5715 5711 5708 5705 5702 5699 5696 5693 5691 5688 5686 5684 5683 5682 5681 5679 5678 5677 5677 5676 5676 5675 5675 5675 5676 5678 5680 5682 5684 5686 5688 5691 5694 5697
5738 5735 5732 5729 5726 5723 5719 5716 5712 5709 5706 5703 5700 5697 5693 5690 5687 5685 5682 5680 5678 5676 5675 5674 5673 5672 5671 5670 5669 5668 5668 5668 5668 5668 5669 5671 5673 5675 5677 5680 5682 5685 5688
5733 5730 5728 5725 5721 5718 5715 5711 5707 5704 5701 5698 5695 5691 5688 5685 5682 5679 5676 5674 5672 5670 5669 5668 5666 5665 5664 5663 5662 5661 5661 5660 5660 5661 5661 5663 5665 5667 5668 5671 5673 5676 5678
5729 5726 5723 5720 5717 5714 5710 5706 5703 5699 5696 5693 5690 5686 5683 5680 5676 5673 5671 5668 5667 5665 5663 5661 5660 5659 5658 5656 5655 5654 5653 5653 5654 5654 5654 5655 5656 5658 5660 5662 5664 5666 5669
5726 5722 5719 5716 5713 5710 5706 5702 5699 5695 5692 5689 5685 5682 5678 5675 5671 5668 5666 5663 5661 5659 5657 5656 5654 5652 5651 5650 5648 5647 5646 5646 5647 5647 5647 5648 5648 5649 5651 5653 5655 5657 5660
5722 5719 5716 5713 5709 5706 5702 5699 5695 5691 5688 5685 5681 5677 5674 5670 5667 5663 5661 5658 5656 5654 5652 5650 5648 5647 5645 5643 5641 5640 5640 5640 5640 5640 5640 5641 5641 5641 5643 5644 5646 5648 5650
5719 5716 5713 5709 5706 5703 5699 5695 5692 5688 5685 5681 5678 5674 5670 5666 5663 5659 5656 5653 5651 5649 5646 5644 5642 5641 5639 5637 5635 5634 5633 5633 5634 5633 5633 5633 5633 5634 5635 5636 5637 5639 5641
5716 5713 5710 5706 5703 5700 5696 5692 5689 5685 5682 5678 5674 5670 5666 5662 5659 5655 5652 5649 5646 5644 5641 5639 5637 5635 5633 5631 5629 5628 5627 5627 5627 5627 5626 5626 5626 5626 5627 5627 5628 5630 5631